Regional Weather Roundup
Issued by NWS Wakefield, VA

Home | Current Version | Previous Version | Text Only | Print | Product List | Glossary Off
Versions: 1 2 3 4 5 6 7 8 9 10 11 12 13 14 15 16 17 18 19 20 21 22 23 24 25 26 27 28 29 30 31 32 33 34 35 36 37 38 39 40 41 42 43 44 45 46 47 48 49 50

000
ASUS41 KAKQ 271915
RWRAKQ

REGIONAL WEATHER ROUNDUP
NATIONAL WEATHER SERVICE WAKEFIELD VA
300 PM EDT WED JUL 27 2016

Note: "fair" indicates few or no clouds below 12,000 feet with no
significant weather and/or obstructions to visibility. * = Denotes
station may not report precipitation (e.g., rain,snow,etc.),
thunder or fog.

VAZ042-051-052>054-056-272000-
NORTHERN VIRGINIA

CITY           SKY/WX    TMP DP  RH WIND       PRES   REMARKS
WASH NATIONAL  PTSUNNY   95  64  35 NE9       29.93F HX  97
DULLES         PTSUNNY   92  64  39 VRB6      29.94F
FORT BELVOIR   FAIR      93  64  38 W8        29.92F HX  95
QUANTICO       FAIR      91  68  46 S6        29.93F HX  95
FREDERICKSBRG*   N/A     93  68  44 CALM      29.91F HX  97
STAFFORD*      FAIR      94  61  34 NW6       29.97F
WARRENTON      FAIR      94  57  28 CALM      29.94F
CULPEPER*      FAIR      90  71  53 CALM      29.95F HX  95
MANASSAS*      MOSUNNY   93  63  36 CALM      29.93F
LEESBURG*      FAIR      91  70  49 NW6G17    29.96S HX  97
WINCHESTER     FAIR      90  68  48 W5        29.96F
FRONT ROYAL*   MOCLDY    91  68  46 CALM      29.94F HX  95
LURAY*         FAIR      90  70  51 S3        29.97F HX  95
$$

VAZ048-049-060>072-079>083-272000-
CENTRAL AND SOUTH CENTRAL VIRGINIA

CITY           SKY/WX    TMP DP  RH WIND       PRES   REMARKS
RICHMOND       PTSUNNY   89  74  60 VRB5      29.92F HX  98
CHESTERFIELD*  FAIR      91  66  43 CALM      29.94F
PETERSBURG*    FAIR      94  75  55 SW3       29.93F HX 105
HANOVER        FAIR      92  72  51 NW5       29.94F HX  99
TAPPAHANNOCK*  FAIR      96  69  41 SW3       29.93F HX 102
QUINTON*       FAIR      90  77  64 CALM      29.92F HX 103
CHARLOTTSVILLE TSTM      83  72  69 N6        29.96R
GORDONSVILLE*  FAIR      89  73  60 CALM      29.95S HX  96
ORANGE*          N/A     90  68  48 CALM      29.97F
LOUISA*        PTSUNNY   95  75  52 NE6       29.93F HX 107
BUMPASS*       MOCLDY    89  76  65 CALM      29.94F HX 100
FARMVILLE*     NOT AVBL
CREWE*         FAIR      91  76  59 CALM      29.93F HX 103
FORT PICKETT*  MOCLDY    90  76  64 SE3       29.94F HX 101
CHASE CITY*    FAIR      92  71  50 W3        29.95F HX  98
CLARKSVILLE*   MOCLDY    91  73  55 N3        29.94F HX 100
SOUTH HILL*    FAIR      91  75  59 W6        30.00F HX 102
LAWRENCEVILLE* FAIR      92  76  60 W5        29.94F HX 105
EMPORIA*       PTSUNNY   91  73  55 CALM      29.94F HX 100
$$

VAZ088>098-272000-
SOUTHEAST VIRGINIA

CITY           SKY/WX    TMP DP  RH WIND       PRES   REMARKS
NORFOLK        FAIR      95  71  45 SW8       29.91F HX 102
VIRGINIA BEACH PTSUNNY   97  76  50 VRB3      29.90F HX 110
NORFOLK NAVAL  FAIR      93  70  46 NW8       29.93F HX  99
WEST POINT*    FAIR      92  75  57 W5        29.93F HX 102
SALUDA*        MOCLDY    90  80  72 CALM      29.91F HX 108
NEWPORT NEWS   FAIR      93  75  55 NW5       29.92F HX 104
LANGLEY AFB    MOSUNNY   91  79  68 NE8       29.91F HX 108
FORT EUSTIS    FAIR      95  76  55 VRB2      29.91F HX 108
WILLIAMSBURG*  FAIR      97  75  49 SW7       29.93F HX 109
HR EXEC AP*    FAIR      93  77  59 NW5       29.93F HX 107
FRANKLIN*      FAIR      90  75  62 CALM      29.93F HX 101
US460-WAKEFLD  FAIR      91  75  59 VRB3      29.93F HX 101
$$

VAZ020-022-025-037-045-272000-
WEST CENTRAL AND SOUTHWEST VIRGINIA

CITY           SKY/WX    TMP DP  RH WIND       PRES   REMARKS
STAUNTON*      FAIR      78  73  83 SE6       30.02F
WAYNESBORO*    CLOUDY    74  70  88 NE5G16    30.02R VSB 3/4
HOT SPRINGS VA NOT AVBL
LYNCHBURG      FAIR      91  70  49 CALM      29.97F HX  96
DANVILLE       FAIR      93  74  53 SW6       29.96S HX 103
SOUTH BOSTON*  FAIR      95  71  44 N3        29.94F HX 102
MARTINSVILLE   FAIR      94  70  45 S3        30.00F HX 100
ROANOKE        PTSUNNY   77  71  82 W9        30.02R THUNDER
BLACKSBURG     PTSUNNY   89  71  54 SW6       30.07F
DUBLIN*        PTSUNNY   84  70  63 S12G23    30.07S
MARION*        PTSUNNY   83  68  61 NW12G21   30.14R
HILLSVILLE*    PTSUNNY   87  70  57 CALM      30.09F
RICHLANDS*     MOCLDY    72  72  99 CALM      30.13F FOG
WISE*          PTSUNNY   82  63  51 E3        30.12F
ABINGDON*      FAIR      91  69  48 W8        30.07F HX  95
$$

MDZ021>025-VAZ099-100-272000-
SOUTHERN MARYLAND AND THE DELMARVA PENINSULA

CITY           SKY/WX    TMP DP  RH WIND       PRES   REMARKS
PATUXENT RIVER MOSUNNY   95  69  42 NE9       29.91F HX 100
BAY BRIDGE APT PTSUNNY   86  73  66 N6        29.93F
LEONARDTOWN    SUNNY     90  68  48 CALM      29.94
DOVER          MOSUNNY   89  81  77 VRB5      29.90F HX 106
GEORGETOWN     MOSUNNY   94  64  37 NW7       29.92F HX  95
EASTON         MOSUNNY   91  75  59 NW7       29.96F HX 102
CAMBRIDGE      SUNNY     90  64  43 NW5       29.92F
SALISBURY      CLOUDY    84  75  74 SE9       29.92S
OCEAN CITY     CLOUDY    82  74  76 SW9       29.93F
WALLOPS ISLAND FAIR      84  76  76 E10       29.94F
ACCOMACK*      CLOUDY    88  77  70 CALM      29.93F HX 100
$$

NCZ012>017-030>032-272000-
NORTH CENTRAL AND EASTERN NORTH CAROLINA

CITY           SKY/WX    TMP DP  RH WIND       PRES   REMARKS
ROANOKE RAPIDS FAIR      90  77  66 W6        29.94F HX 102
RALEIGH        PTSUNNY   88  78  72 CALM      29.96F HX 101
ELIZABETH CITY SUNNY     94  75  54 SW8       29.92F HX 105
AHOSKIE*       SUNNY     89  77  67 CALM      29.93F HX 102
EDENTON*       SUNNY     94  75  54 W5        29.93F HX 106
CURRITUCK*     MOSUNNY   92  74  55 CALM      29.93F HX 102
KILL DEVIL HLS NOT AVBL
MANTEO           N/A     90  78  68 N6        29.93F HX 104
CAPE HATTERAS  SUNNY     87  79  76 SW9       29.95F HX 101
TARBORO*       FAIR      95  77  56 CALM      29.94F HX 109
GOLDSBORO      MOSUNNY   97  76  51 W10       29.93F HX 110
WASHINGTON     MOSUNNY   95  79  60 W6        29.93F HX 112
GREENVILLE     SUNNY     97  79  56 CALM      29.95F HX 115
NEW BERN       SUNNY     95  77  55 SW7       29.95F HX 109
WILMINGTON     SUNNY     97  72  44 W10       29.95F HX 105
$$

VAZ048-272000-
ELSEWHERE

CITY           SKY/WX    TMP DP  RH WIND       PRES   REMARKS
HARRISBURG PA  PTSUNNY   90  66  45 VRB3      29.93F
BALTIMORE      MOSUNNY   94  64  37 VRB3      29.91F HX  95
ANNAPOLIS      PTSUNNY   89  71  55 N3        29.92F HX  95
ANDREWS AFB    FAIR      93  64  39 SW8       29.92F
PHILADELPHIA   MOSUNNY   92  65  40 SE7       29.92S
GREENSBORO     MOSUNNY   95  68  41 VRB3      29.96F HX  99
ROCKY MOUNT    MOSUNNY   94  78  60 VRB5      29.94F HX 110
$$

VAZ100-272000-
MARINE

STATION/POSITION TIME  TEMP    WIND        PRES    WAVE   SWELL
                       AIR SEA DIR/SP/G            HT/PER HT/PER
                 (UTC) (F)     (DEG/KT/KT) (MB)    (FT/S) (FT/S)
BRANDYWINE LGT   1800   77     180/ 13/ 15   N/A
CAPE MAY NJ      1800   84 74  140/ 10/ 12 1013.0R
LEWES DE         1800   87 78  150/ 11/ 14 1013.1S
OCEAN-CITY-INLET 1800   75 72  190/  7/ 10 1014.1F
WACHAPREAGUE VA  1800   85 87  150/  6/  7 1013.5F
THOMAS POINT MD  1900   86 85   CALM  /  1 1014.7F
GOOSES REEF MD   1900   87 88   60/  6/  6 1014.2F   0
COVE POINT MD    1800   85      30/  6/  7 1014.0F
SOLOMONS ISLAND  1800   91 85  260/  4/  5   N/A
BISHOPS HEAD MD  1800   86     250/  6/  8 1013.9F
PINEY POINT MD   1800          330/  6/  7   N/A
POTOMAC MD       1900   90 90   CALM  /  2 1011.9F   0
CAMBRIDGE MD     1800   88 87  320/  6/  8 1012.7F
LEWISETTA VA     1800   88 87   50/  4/  6 1013.2F
RAPPAHANNOCK LGT 1800          250/  4/  5 1014.3F
STINGRAY PT      1900   87 90   90/  4/  6 1013.5F   0
YORK RVR RNG VA  1800   88      80/  2/  3 1013.1F
YORKTOWN VA      1800   89 84  350/  2/  3 1013.2F
JAMESTOWN VA     1900   89     300/  2/  4   N/A     0
DOMINION TERM VA 1800   87     310/  5/  6 1013.7F
KIPTOPEKE VA     1800      84  310/  4/  4   N/A
CHES BAY BRIDGE  1800   84 79  340/  5/  5 1013.5F
CAPE HENRY VA    1800   84      40/  3/  3   N/A
WILLOUBY STN VA  1800   86     220/  7/  8   N/A
CAPE HENRY BUOY  1812      77                N/A     1/ 5
1ST LANDING BUOY 1900   85 81   70/  4/  6 1012.8F   1/ 4
CAPE CHARLES BUO 1826      80                N/A     1/ 6
OFFSHORE WE BUOY 1821      84                N/A     2/ 5
64NM E OF VA BCH 1850   83 83  200/  4/  4 1013.5F   3/ 6   2/ 6
DUCK PIER NC     1800   83 69  130/  6/  6 1013.1F
44100 DUCK FRF   1805      82                N/A     2/ 5
44056 DUCK FRF   1811      79                N/A     1/ 5
OREGON INLET NC  1800   87 84   50/  5/  7 1013.9F
HATTERAS NC      1800   87 83  260/  6/  8 1014.3F
DIAMOND SHLS NC  1850   84 85  250/ 10/ 12 1014.1F   3/ 5   2/ 5
CAPE LOOKOUT NC  1900   88     220/  9/ 11 1014.0F
$$



USA.gov is the U.S. government's official web portal to all federal, state and local government web resources and services.